User: anonymous   Login
Location: Caltech
(34.1382°N, 118.1253°W)
Time: 08:23:40
(UTC-07:00)
Language:

Uribyol 2 - Orbit

View from above orbital plane
View from above orbital plane
View from above satellite
View from above satellite

Ground track
Ground track

The orbit data is extracted from the following two-line orbital elements,

1 22828U 93061F   18110.87834897  .00000048  00000-0  36038-4 0  9992
2 22828  98.8431  84.6138 0010920 109.0299 251.2066 14.30669916249933
Epoch (UTC): 20 April 2018 21:04:49
Eccentricity: 0.0010920
inclination: 98.8431°
perigee height: 781 km
apogee height: 797 km
right ascension of ascending node: 84.6138°
argument of perigee: 109.0299°
revolutions per day: 14.30669916
mean anomaly at epoch: 251.2066°
orbit number at epoch: 24993

The dashed part of the orbit path shows where the satellite is in the earth's shadow,  

DLR